Simultaneous Nadir Overpasses (SNOs) Predictions

Prediction of SNOs between NPP and GCOM-C Satellite Orbit:

Table of predicted SNOs for the next 14.0 days since TLE Epoch: 6/11/2022
Index Date (NPP) Time (NPP) Lat,Lon (NPP) SZA (NPP ) Date (GCOM-C) Time (GCOM-C) Lat,Lon (GCOM-C) SZA (GCOM-C ) Distance(km) Time Diff (sec)
1 06/20/2022 09:48:42 -69.38,-149.80 134.14 06/20/2022 09:49:50 -69.31,-147.81 134.23 78.33 68
2 06/20/2022 10:39:16 68.73, 18.40 45.20 06/20/2022 10:40:29 68.66, 18.69 45.13 13.53 73
3 06/20/2022 11:29:56 -68.58,-174.08 134.96 06/20/2022 11:31:00 -68.56,-174.07 134.98 1.70 64
4 06/20/2022 12:20:41 68.51, -6.69 44.98 06/20/2022 12:21:28 68.50, -6.76 44.97 3.07 47
5 06/20/2022 13:11:25 -68.52, 160.61 135.01 06/20/2022 13:11:58 -68.51, 160.63 135.03 1.71 33
6 06/20/2022 14:02:11 68.51, -32.06 44.98 06/20/2022 14:02:25 68.50, -31.99 44.97 3.04 14
7 06/20/2022 14:52:54 -68.47, 135.31 135.07 06/20/2022 14:52:56 -68.46, 135.32 135.08 1.74 2
8 06/20/2022 15:43:40 68.46, -57.37 44.92 06/20/2022 15:43:23 68.45, -57.30 44.91 3.03 17
9 06/20/2022 16:34:23 -68.42, 110.00 135.12 06/20/2022 16:33:54 -68.40, 110.02 135.14 1.78 29
10 06/20/2022 17:25:09 68.41, -82.68 44.87 06/20/2022 17:24:21 68.40, -82.61 44.86 3.04 48
11 06/20/2022 18:15:52 -68.37, 84.70 135.18 06/20/2022 18:14:52 -68.35, 84.71 135.19 1.82 60
12 06/20/2022 19:06:35 68.19,-107.77 44.65 06/20/2022 19:05:22 68.18,-108.12 44.65 14.37 73
13 06/20/2022 19:57:10 -67.72, 60.13 135.83 06/20/2022 19:56:00 -67.76, 58.73 135.77 59.07 70



Historial Predications of SNOs between NPP and GCOM-C
